Miscellaneous Local Product
Issued by NWS North Platte, NE

Home | Current Version | Previous Version | Text Only | Print | Product List | Glossary Off
Versions: 1 2 3 4 5 6 7 8 9 10 11 12 13 14 15 16 17 18 19 20 21 22 23 24 25 26 27 28 29 30 31 32 33 34 35 36 37 38 39 40 41 42 43 44 45 46 47 48 49 50

000
AXUS43 KLBF 211810
MISLBF


WESTERN AND NORTH CENTRAL NEBRASKA HOURLY WEATHER ROUNDUP
NATIONAL WEATHER SERVICE NORTH PLATTE NE
100 PM CDT THU AUG 21 2014

***STATIONS NOT REPORTING VARIABLES SUCH AS SKY/WEATHER OR
PRESSURE ARE PROVIDED BY THE NEBRASKA DEPARTMENT OF
ROADS...RAWS...AND APRS NETWORKS...AND ARE NOT UNDER
NATIONAL WEATHER SERVICE QUALITY CONTROL***

...OBSERVATIONS IN AND NEAR THE EASTERN PANHANDLE OF NEBRASKA...

CITY           SKY/WX    TMP DP  RH WIND       PRES   REMARKS
PINE RIDGE     SUNNY     80  57  45 N6        29.98F
CHADRON        SUNNY     84  54  35 NE8       29.97F
ALLIANCE       MOSUNNY   84  50  30 N10G23    30.01R
SIDNEY         SUNNY     85  49  28 NW15G21   30.04S
WHITECLAY        N/A     80  54  40 E9          N/A
RUSHVILLE        N/A     83  52  33 NE13        N/A
GORDON           N/A     84  58  41 N10         N/A
CRESCENT LAKE    N/A     84  53  33 NE6G13      N/A
LISCO            N/A     86  46  25 W9          N/A
BIG SPRINGS      N/A     81  59  47 NW3         N/A
$$

...OBSERVATIONS IN NORTH CENTRAL NEBRASKA...

CITY           SKY/WX    TMP DP  RH WIND       PRES   REMARKS
VALENTINE      SUNNY     83  60  45 NW10      29.92S
THEDFORD       SUNNY     83  62  49 NE8       29.94F
AINSWORTH      SUNNY     79  62  56 N8        29.91S
O`NEILL        MOSUNNY   80  71  73 N3        29.88R
ORD            SUNNY     83  68  60 N7        29.86R
BROKEN BOW     SUNNY     84  68  58 NE8       29.91R
BROWNLEE         N/A     85  60  42 N10         N/A
SPRINGVIEW       N/A     82  63  52 NE6         N/A
ROSE             N/A     85  69  58 E3          N/A
NEWPORT          N/A     83  66  56 S5          N/A
SARGENT          N/A     82  68  62 CALM        N/A
COMSTOCK         N/A     89  71  53 CALM        N/A  HX  95
CHAMBERS         N/A     84  71  65 CALM        N/A
EWING            N/A     82  74  77 NW3         N/A
$$

...OBSERVATIONS IN SOUTHWEST NEBRASKA AND FAR NORTHEAST COLORADO...

CITY           SKY/WX    TMP DP  RH WIND       PRES   REMARKS
WRAY             N/A     90  47  22 NW13      30.00S
IMPERIAL       SUNNY     85  54  34 N6        29.96S
OGALLALA       SUNNY     84  54  36 W3        29.95S
NORTH PLATTE   SUNNY     87  64  46 E7        29.91S
MCCOOK         SUNNY     91  57  31 NW12      29.90F
LEXINGTON      SUNNY     84  70  63 NW12      29.89S
PAXTON           N/A     82  58  44 CALM        N/A
SUTHERLAND       N/A     91  59  33 E5          N/A  HX  90
BRADY            N/A     84  68  58 CALM        N/A
GOTHENBURG       N/A     81  60  48 N6          N/A
CALLAWAY         N/A     81  70  68 NE8         N/A
$$

...SOME WEATHER OBSERVATIONS FROM AROUND THE REGION...

CITY           SKY/WX    TMP DP  RH WIND       PRES   REMARKS
DENVER         MOSUNNY   78  48  34 VRB5      30.11F
LARAMIE        PTSUNNY   68  42  38 W17       30.22S
CHEYENNE       MOSUNNY   79  42  26 W10G20    30.15S
SCOTTSBLUFF    MOSUNNY   82  55  39 VRB3      30.02S
RAPID CITY       N/A     78  57  48 VRB5      29.97F
PIERRE         MOSUNNY   81  63  54 VRB5      29.85F
WINNER         FAIR      82  64  54 NW13      29.87F
SIOUX FALLS    PTSUNNY   85  76  74 S6        29.77S HX  94
OMAHA          PTSUNNY   85  69  58 S12       29.82S
GRAND ISLAND   SUNNY     86  70  58 S9        29.86R HX  90
KANSAS CITY    CLOUDY    88  74  63 S13       29.91F HX  96
WICHITA        SUNNY     95  67  39 S22       29.90F HX  99
HAYS           SUNNY     95  64  36 S15       29.85S HX  97
LIBERAL        SUNNY     97  61  30 SW13      29.93S HX  97
GOODLAND       SUNNY     89  50  26 N8        29.99F
$$



USA.gov is the U.S. government's official web portal to all federal, state and local government web resources and services.